STARLINK-36141, 67057

Orbit data source: Space-Track

STARLINK-36141, 67057 is a payload satellite owned by SpaceX/Seattle (US) in LEO that was launched on Thu, 11 Dec 2025 UTC via an FALCON 9 launch vehicle from the Air Force Eastern Test Range (AFETR). Payload-class satellites include a variety of spacecraft equipped with specific instruments for various scientific and technological missions. These include communications satellites like Starlink; space stations such as the ISS; scientific satellites like the Hubble; Earth observation satellites from companies like Planet Labs, Umbra, and HawkEye 360; GPS; miniature CubeSats for education and research; and military/defense satellites.

Loading next visibility...
Identifier
67057, 2025-294AD
Orbit
LEO
Country
Flag of USUS
Related business
Manufacturer
SpaceX/Seattle
Mission
Operational Commercial Communications
Bus & Motor
STARLINK V2MO, Unknown motor
Mass
575 kg wet, ~530 kg dry
Launch date (UTC)
2025-12-11 (6 months ago)
Launch vehicle
FALCON 9
Launch site
Air Force Eastern Test Range (AFETR)
Object type
Payload
Rocket body
Debris
Shape & HBR
Box + 2 Pan, 17.7 m
Radar Cross Section
36.964 m², Large (>1 m²)

Expand to show TLE details & history
Last TLE update: 20 hours ago

TLE from 20 hours ago
0 STARLINK-36141
1 67057U 25294AD  26171.03462187  .00012735  00000-0  47137-3 0  9998
2 67057  42.9999 179.8990 0001073 261.8080  98.2650 15.27589749 30457
Epoch: 2026-06-20T00:49Z
TLE epoch observation values (Epoch: 2026-06-20T00:49:51.329Z)
Latitude
-0.00002°
Longitude
-100.81993°
Altitude
482.901 km
Speed
7.626 km/s
True Right ascension
11h 59m 35s
True Declination
0° 00' 00"
Sunlit
Object was in daylight at epoch
Visualization orbit readout
Latitude
Unknown
Longitude
Unknown
Altitude
Unknown
Speed
Unknown
Apparent Right ascension
Unknown
Apparent Declination
Unknown
Sunlit
N/A
Visualization observer readout
Local Sidereal Time
07:16:27
Azimuth
Unknown
Elevation
Unknown
Doppler factor
Unknown
Orbital elements
Apogee altitude
485.702 km
Perigee altitude
484.229 km
Semi-major axis
6,863.102 km
Eccentricity
0.00011
Inclination
42.9999°
RAAN
179.899°
Arg. of periapsis
261.808°
True anomaly
98.27717°
Mean anomaly
98.265°
Eccentric anomaly
98.27108°
Mean motion
3.81735 °/min
Orbital period
94.31 mins
BSTAR
0.00047137
Loading maneuver chart data...
Computing Atmospheric mass density...
Loading historical data...
Loading historical data...
Loading historical data...
Loading historical data...
Loading historical data...
Loading historical data...
Loading historical data...

Documentation

Showing up to 5 results
|